RYR1KM ELLX-EIDW

Flight info

Callsign RYR1KM
Flight time 1h 28m
Altitude 36000
Route DIK5X DIK N852 TERLA L608 DENUT L610 KOPUL Q60 OKSAW DCT TEWXI DCT LANON L18 ABLIN ABLIN4L
Aircraft A320/M-SDE3FGHIRWY/LB1

Departure

Time 2026-05-06 15:11
Airport Luxembourg-Findel International Airport (ELLX)

Arrival

Time 2026-05-06 16:39
Airport Dublin Airport (EIDW)
Time Latitude Longitude Altitude Speed Heading
2026-05-06 14:53 49.63383 6.21790 1196 ft 0 kts 328°
2026-05-06 15:03 49.63376 6.21797 1195 ft 2 kts 328°
2026-05-06 15:04 49.63361 6.21809 1195 ft 2 kts 330°
2026-05-06 15:04 49.63347 6.21822 1195 ft 1 kts 335°
2026-05-06 15:04 49.63339 6.21827 1196 ft 2 kts 11°
2026-05-06 15:04 49.63329 6.21822 1196 ft 2 kts 57°
2026-05-06 15:05 49.63327 6.21818 1196 ft 0 kts 57°
2026-05-06 15:06 49.63330 6.21826 1196 ft 4 kts 57°
2026-05-06 15:06 49.63356 6.21940 1196 ft 15 kts 83°
2026-05-06 15:06 49.63325 6.22033 1196 ft 15 kts 134°
2026-05-06 15:06 49.63250 6.22151 1198 ft 15 kts 124°
2026-05-06 15:07 49.63282 6.22313 1199 ft 24 kts 64°
2026-05-06 15:07 49.63370 6.22577 1199 ft 29 kts 59°
2026-05-06 15:07 49.63472 6.22850 1199 ft 30 kts 60°
2026-05-06 15:07 49.63578 6.23134 1200 ft 31 kts 60°
2026-05-06 15:08 49.63662 6.23368 1201 ft 18 kts 70°
2026-05-06 15:08 49.63607 6.23478 1214 ft 8 kts 149°
2026-05-06 15:08 49.63565 6.23512 1228 ft 4 kts 158°
2026-05-06 15:08 49.63542 6.23523 1230 ft 9 kts 162°
2026-05-06 15:09 49.63515 6.23497 1230 ft 0 kts 240°
2026-05-06 15:09 49.63514 6.23495 1230 ft 2 kts 240°
2026-05-06 15:10 49.63457 6.23342 1228 ft 43 kts 240°
2026-05-06 15:10 49.63198 6.22634 1222 ft 106 kts 239°
2026-05-06 15:10 49.62745 6.21424 1217 ft 152 kts 240°
2026-05-06 15:10 49.62168 6.19876 1473 ft 165 kts 243°
2026-05-06 15:11 49.61615 6.18396 2261 ft 157 kts 244°
2026-05-06 15:11 49.61059 6.16931 2790 ft 160 kts 244°
2026-05-06 15:11 49.60473 6.15387 3169 ft 177 kts 243°
2026-05-06 15:11 49.59813 6.13642 3484 ft 200 kts 243°
2026-05-06 15:12 49.59076 6.11690 3813 ft 221 kts 242°
2026-05-06 15:12 49.58258 6.09532 4196 ft 246 kts 242°
2026-05-06 15:12 49.57355 6.07154 4846 ft 263 kts 241°
2026-05-06 15:12 49.56629 6.04553 5824 ft 266 kts 258°
2026-05-06 15:13 49.56453 6.01715 6733 ft 269 kts 275°
2026-05-06 15:13 49.56930 5.98943 7648 ft 271 kts 296°
2026-05-06 15:13 49.58054 5.96587 8509 ft 275 kts 310°
2026-05-06 15:13 49.59336 5.94376 9345 ft 280 kts 311°
2026-05-06 15:14 49.60658 5.92136 10068 ft 285 kts 311°
2026-05-06 15:14 49.62040 5.89792 10344 ft 307 kts 310°
2026-05-06 15:14 49.63520 5.87264 10628 ft 325 kts 310°
2026-05-06 15:14 49.65051 5.84646 11202 ft 330 kts 311°
2026-05-06 15:15 49.66595 5.82007 11892 ft 333 kts 311°
2026-05-06 15:15 49.68149 5.79351 12632 ft 335 kts 311°
2026-05-06 15:15 49.69713 5.76669 13327 ft 337 kts 310°
2026-05-06 15:15 49.71286 5.73964 13972 ft 340 kts 310°
2026-05-06 15:16 49.72873 5.71227 14558 ft 344 kts 310°
2026-05-06 15:16 49.74477 5.68451 15110 ft 348 kts 310°
2026-05-06 15:16 49.76105 5.65635 15626 ft 353 kts 310°
2026-05-06 15:16 49.77728 5.62832 16161 ft 357 kts 310°
2026-05-06 15:17 49.79394 5.59960 16737 ft 361 kts 310°
2026-05-06 15:17 49.81077 5.57054 17310 ft 364 kts 310°
2026-05-06 15:17 49.82771 5.54124 17877 ft 367 kts 310°
2026-05-06 15:17 49.84481 5.51158 18421 ft 371 kts 309°
2026-05-06 15:18 49.86200 5.48169 18992 ft 372 kts 309°
2026-05-06 15:18 49.87927 5.45164 19537 ft 375 kts 309°
2026-05-06 15:18 49.89671 5.42124 20078 ft 378 kts 310°
2026-05-06 15:18 49.91424 5.39062 20607 ft 381 kts 310°
2026-05-06 15:19 49.93193 5.35965 21110 ft 385 kts 309°
2026-05-06 15:19 49.94976 5.32844 21632 ft 387 kts 309°
2026-05-06 15:19 49.96770 5.29701 22128 ft 390 kts 309°
2026-05-06 15:19 49.98583 5.26531 22600 ft 394 kts 310°
2026-05-06 15:20 50.00409 5.23340 23075 ft 398 kts 310°
2026-05-06 15:20 50.02256 5.20103 23455 ft 403 kts 309°
2026-05-06 15:20 50.04139 5.16794 23577 ft 414 kts 310°
2026-05-06 15:20 50.06068 5.13399 23697 ft 424 kts 310°
2026-05-06 15:21 50.08035 5.09928 23822 ft 432 kts 309°
2026-05-06 15:21 50.10047 5.06373 23947 ft 440 kts 310°
2026-05-06 15:21 50.12085 5.02769 24062 ft 447 kts 311°
2026-05-06 15:21 50.14159 4.99097 24188 ft 454 kts 311°
2026-05-06 15:22 50.16253 4.95376 24309 ft 459 kts 311°
2026-05-06 15:22 50.18339 4.91665 24562 ft 461 kts 311°
2026-05-06 15:22 50.20459 4.87897 24815 ft 463 kts 311°
2026-05-06 15:22 50.22590 4.84108 25071 ft 465 kts 311°
2026-05-06 15:23 50.24727 4.80303 25328 ft 467 kts 311°
2026-05-06 15:23 50.26865 4.76485 25596 ft 468 kts 310°
2026-05-06 15:23 50.29014 4.72639 25831 ft 470 kts 311°
2026-05-06 15:23 50.31164 4.68786 26080 ft 471 kts 311°
2026-05-06 15:24 50.33322 4.64915 26310 ft 472 kts 310°
2026-05-06 15:24 50.35484 4.61032 26499 ft 474 kts 310°
2026-05-06 15:24 50.37648 4.57140 26740 ft 473 kts 310°
2026-05-06 15:24 50.39802 4.53255 27061 ft 471 kts 310°
2026-05-06 15:25 50.41948 4.49376 27334 ft 470 kts 310°
2026-05-06 15:25 50.44091 4.45505 27619 ft 470 kts 310°
2026-05-06 15:25 50.46135 4.41808 27892 ft 470 kts 310°
2026-05-06 15:25 50.48254 4.37968 28185 ft 469 kts 310°
2026-05-06 15:26 50.50386 4.34096 28477 ft 469 kts 310°
2026-05-06 15:26 50.52504 4.30240 28783 ft 468 kts 310°
2026-05-06 15:26 50.54594 4.26430 29075 ft 468 kts 310°
2026-05-06 15:26 50.56746 4.22506 29361 ft 468 kts 309°
2026-05-06 15:27 50.58759 4.18829 29597 ft 469 kts 309°
2026-05-06 15:27 50.60728 4.15228 29866 ft 470 kts 309°
2026-05-06 15:27 50.62845 4.11357 30145 ft 469 kts 309°
2026-05-06 15:27 50.64944 4.07508 30417 ft 469 kts 309°
2026-05-06 15:28 50.67063 4.03606 30701 ft 467 kts 309°
2026-05-06 15:28 50.69171 3.99715 30990 ft 467 kts 309°
2026-05-06 15:28 50.71280 3.95817 31261 ft 466 kts 309°
2026-05-06 15:28 50.73386 3.91926 31555 ft 465 kts 309°
2026-05-06 15:29 50.75486 3.88051 31853 ft 464 kts 309°
2026-05-06 15:29 50.77584 3.84178 32139 ft 463 kts 309°
2026-05-06 15:29 50.79673 3.80309 32416 ft 463 kts 309°
2026-05-06 15:29 50.81762 3.76427 32710 ft 462 kts 309°
2026-05-06 15:30 50.83838 3.72560 33072 ft 459 kts 309°
2026-05-06 15:30 50.85901 3.68717 33449 ft 457 kts 309°
2026-05-06 15:30 50.87831 3.65125 33746 ft 456 kts 309°
2026-05-06 15:30 50.89888 3.61295 34022 ft 455 kts 309°
2026-05-06 15:31 50.91935 3.57473 34274 ft 454 kts 309°
2026-05-06 15:31 50.93976 3.53648 34498 ft 454 kts 309°
2026-05-06 15:31 50.96015 3.49821 34730 ft 454 kts 309°
2026-05-06 15:32 51.00092 3.42152 35207 ft 454 kts 308°
2026-05-06 15:32 51.02116 3.38332 35454 ft 454 kts 308°
2026-05-06 15:32 51.04121 3.34537 35671 ft 454 kts 308°
2026-05-06 15:32 51.06172 3.30654 35875 ft 454 kts 308°
2026-05-06 15:33 51.10207 3.23010 35933 ft 453 kts 308°
2026-05-06 15:33 51.14255 3.15310 35940 ft 452 kts 308°
2026-05-06 15:34 51.18291 3.07622 35944 ft 452 kts 308°
2026-05-06 15:34 51.22312 2.99949 35946 ft 452 kts 308°
2026-05-06 15:35 51.25870 2.93123 35947 ft 452 kts 308°
2026-05-06 15:35 51.29416 2.86294 35948 ft 452 kts 308°
2026-05-06 15:36 51.32768 2.79778 35957 ft 451 kts 305°
2026-05-06 15:36 51.35571 2.71268 35956 ft 446 kts 286°
2026-05-06 15:37 51.36912 2.61613 35957 ft 444 kts 280°
2026-05-06 15:37 51.38099 2.51909 35950 ft 444 kts 280°
2026-05-06 15:38 51.39275 2.42259 35959 ft 444 kts 279°
2026-05-06 15:38 51.40453 2.32471 35955 ft 444 kts 280°
2026-05-06 15:39 51.41617 2.22754 35951 ft 445 kts 280°
2026-05-06 15:39 51.42801 2.13080 35951 ft 445 kts 280°
2026-05-06 15:40 51.43988 2.03354 35958 ft 445 kts 280°
2026-05-06 15:40 51.45155 1.93621 35956 ft 445 kts 280°
2026-05-06 15:41 51.46299 1.83861 35958 ft 445 kts 280°
2026-05-06 15:41 51.47423 1.74097 35959 ft 445 kts 280°
2026-05-06 15:42 51.48545 1.64326 35964 ft 445 kts 280°
2026-05-06 15:42 51.49661 1.54552 35965 ft 446 kts 279°
2026-05-06 15:43 51.50771 1.44771 35972 ft 446 kts 279°
2026-05-06 15:43 51.51872 1.34979 35982 ft 445 kts 279°
2026-05-06 15:44 51.52958 1.25187 35978 ft 445 kts 279°
2026-05-06 15:44 51.54030 1.15392 35980 ft 445 kts 279°
2026-05-06 15:45 51.54894 1.05547 35979 ft 445 kts 276°
2026-05-06 15:45 51.55468 0.95643 35983 ft 445 kts 274°
2026-05-06 15:46 51.55998 0.85762 36018 ft 444 kts 275°
2026-05-06 15:46 51.56597 0.75869 36023 ft 444 kts 275°
2026-05-06 15:47 51.57220 0.66004 36025 ft 444 kts 275°
2026-05-06 15:47 51.57825 0.56190 36026 ft 443 kts 275°
2026-05-06 15:48 51.58412 0.46336 36016 ft 443 kts 275°
2026-05-06 15:48 51.58991 0.36470 36016 ft 442 kts 275°
2026-05-06 15:49 51.59558 0.26637 36018 ft 442 kts 275°
2026-05-06 15:49 51.60116 0.16808 36021 ft 441 kts 275°
2026-05-06 15:50 51.60579 0.08579 36023 ft 441 kts 275°
2026-05-06 15:50 51.61108 -0.00948 36061 ft 441 kts 275°
2026-05-06 15:51 51.61586 -0.09653 36065 ft 440 kts 275°
2026-05-06 15:51 51.62147 -0.19460 36078 ft 440 kts 275°
2026-05-06 15:52 51.62757 -0.29231 36081 ft 440 kts 275°
2026-05-06 15:52 51.63373 -0.39052 36018 ft 440 kts 275°
2026-05-06 15:53 51.63951 -0.48637 36017 ft 440 kts 275°
2026-05-06 15:53 51.64524 -0.58448 36016 ft 440 kts 275°
2026-05-06 15:54 51.65085 -0.68235 36019 ft 439 kts 275°
2026-05-06 15:54 51.65644 -0.78014 36011 ft 439 kts 275°
2026-05-06 15:55 51.66178 -0.87513 36010 ft 439 kts 275°
2026-05-06 15:55 51.66725 -0.97319 36018 ft 439 kts 275°
2026-05-06 15:56 51.67739 -1.06932 36025 ft 439 kts 282°
2026-05-06 15:56 51.69106 -1.16513 36024 ft 438 kts 282°
2026-05-06 15:57 51.70476 -1.26084 36021 ft 438 kts 282°
2026-05-06 15:57 51.71834 -1.35675 36017 ft 439 kts 282°
2026-05-06 15:58 51.73174 -1.45265 36017 ft 439 kts 282°
2026-05-06 15:58 51.74503 -1.54882 36020 ft 439 kts 282°
2026-05-06 15:59 51.75825 -1.64490 36020 ft 438 kts 282°
2026-05-06 15:59 51.77149 -1.74102 36024 ft 438 kts 282°
2026-05-06 16:00 51.78465 -1.83714 36030 ft 438 kts 282°
2026-05-06 16:00 51.79763 -1.93338 36042 ft 438 kts 281°
2026-05-06 16:01 51.81144 -2.02915 36040 ft 438 kts 288°
2026-05-06 16:01 51.83559 -2.11970 36024 ft 438 kts 293°
2026-05-06 16:02 51.86062 -2.20953 36020 ft 438 kts 293°
2026-05-06 16:02 51.88548 -2.29948 36022 ft 438 kts 293°
2026-05-06 16:03 51.91025 -2.38970 36019 ft 438 kts 293°
2026-05-06 16:03 51.93488 -2.48002 36024 ft 438 kts 293°
2026-05-06 16:04 51.95952 -2.57033 36020 ft 438 kts 293°
2026-05-06 16:04 51.98407 -2.66063 36026 ft 438 kts 293°
2026-05-06 16:05 52.00864 -2.75122 36020 ft 438 kts 293°
2026-05-06 16:05 52.03304 -2.84157 36033 ft 437 kts 292°
2026-05-06 16:06 52.05714 -2.93160 36024 ft 437 kts 292°
2026-05-06 16:06 52.08134 -3.02226 36024 ft 437 kts 292°
2026-05-06 16:07 52.10550 -3.11281 36024 ft 436 kts 292°
2026-05-06 16:07 52.12952 -3.20344 36022 ft 436 kts 292°
2026-05-06 16:08 52.15343 -3.29420 36024 ft 436 kts 292°
2026-05-06 16:08 52.17729 -3.38503 36019 ft 436 kts 292°
2026-05-06 16:09 52.20119 -3.47575 36017 ft 436 kts 292°
2026-05-06 16:09 52.22504 -3.56655 36014 ft 436 kts 292°
2026-05-06 16:10 52.24867 -3.65784 36019 ft 437 kts 292°
2026-05-06 16:10 52.27226 -3.74927 36016 ft 437 kts 292°
2026-05-06 16:11 52.29591 -3.84092 36012 ft 438 kts 292°
2026-05-06 16:11 52.31952 -3.93266 36013 ft 438 kts 292°
2026-05-06 16:12 52.34304 -4.02458 36007 ft 438 kts 292°
2026-05-06 16:12 52.36647 -4.11672 36008 ft 439 kts 292°
2026-05-06 16:13 52.38990 -4.20911 36013 ft 439 kts 292°
2026-05-06 16:13 52.41310 -4.30092 36018 ft 439 kts 292°
2026-05-06 16:14 52.43109 -4.36393 36017 ft 440 kts 301°
2026-05-06 16:14 52.46496 -4.43176 36026 ft 440 kts 313°
2026-05-06 16:15 52.49818 -4.48955 36020 ft 441 kts 313°
2026-05-06 16:15 52.54014 -4.56292 36021 ft 441 kts 313°
2026-05-06 16:16 52.58207 -4.63674 36025 ft 441 kts 313°
2026-05-06 16:16 52.62392 -4.71050 36027 ft 441 kts 312°
2026-05-06 16:17 52.66573 -4.78429 36029 ft 442 kts 313°
2026-05-06 16:17 52.70770 -4.85864 35838 ft 439 kts 313°
2026-05-06 16:18 52.72845 -4.89559 34438 ft 442 kts 313°
2026-05-06 16:18 52.74947 -4.93307 32790 ft 445 kts 313°
2026-05-06 16:18 52.77052 -4.97067 31054 ft 447 kts 313°
2026-05-06 16:18 52.79161 -5.00834 29545 ft 444 kts 313°
2026-05-06 16:19 52.81254 -5.04577 27816 ft 443 kts 312°
2026-05-06 16:19 52.83345 -5.08317 26041 ft 446 kts 312°
2026-05-06 16:19 52.85483 -5.12146 25024 ft 457 kts 312°
2026-05-06 16:19 52.87625 -5.15986 24284 ft 451 kts 311°
2026-05-06 16:20 52.89769 -5.19837 24066 ft 457 kts 311°
2026-05-06 16:20 52.91921 -5.23716 23987 ft 458 kts 311°
2026-05-06 16:20 52.94081 -5.27622 24009 ft 459 kts 311°
2026-05-06 16:20 52.96241 -5.31533 24007 ft 459 kts 311°
2026-05-06 16:21 52.98393 -5.35440 24011 ft 459 kts 311°
2026-05-06 16:21 53.00552 -5.39362 24010 ft 459 kts 311°
2026-05-06 16:21 53.02707 -5.43281 24010 ft 459 kts 311°
2026-05-06 16:21 53.04860 -5.47201 24010 ft 459 kts 311°
2026-05-06 16:22 53.06708 -5.51497 24002 ft 458 kts 296°
2026-05-06 16:22 53.07975 -5.56328 23451 ft 456 kts 292°
2026-05-06 16:22 53.09154 -5.61164 22126 ft 446 kts 291°
2026-05-06 16:22 53.10280 -5.65944 20876 ft 439 kts 291°
2026-05-06 16:23 53.11372 -5.70645 19705 ft 432 kts 290°
2026-05-06 16:23 53.12447 -5.75288 18592 ft 426 kts 290°
2026-05-06 16:23 53.13500 -5.79798 17416 ft 420 kts 290°
2026-05-06 16:23 53.14602 -5.84333 16226 ft 413 kts 292°
2026-05-06 16:24 53.15728 -5.88697 15114 ft 407 kts 292°
2026-05-06 16:24 53.16866 -5.92970 14051 ft 400 kts 293°
2026-05-06 16:24 53.17991 -5.97162 12942 ft 394 kts 293°
2026-05-06 16:24 53.19097 -6.01299 11858 ft 388 kts 293°
2026-05-06 16:25 53.20145 -6.05272 11162 ft 369 kts 292°
2026-05-06 16:25 53.21132 -6.09053 10859 ft 338 kts 292°
2026-05-06 16:25 53.22023 -6.12505 10720 ft 310 kts 292°
2026-05-06 16:25 53.22837 -6.15679 10489 ft 289 kts 292°
2026-05-06 16:26 53.23617 -6.18725 9959 ft 283 kts 292°
2026-05-06 16:26 53.24388 -6.21730 9303 ft 280 kts 292°
2026-05-06 16:26 53.25148 -6.24689 8657 ft 277 kts 292°
2026-05-06 16:26 53.25902 -6.27637 8008 ft 274 kts 292°
2026-05-06 16:27 53.26641 -6.30536 7558 ft 267 kts 292°
2026-05-06 16:27 53.27359 -6.33347 7264 ft 260 kts 292°
2026-05-06 16:27 53.28058 -6.36082 7143 ft 252 kts 292°
2026-05-06 16:27 53.28588 -6.38802 7028 ft 241 kts 275°
2026-05-06 16:28 53.28417 -6.41494 6997 ft 232 kts 250°
2026-05-06 16:28 53.27590 -6.43772 7001 ft 232 kts 225°
2026-05-06 16:28 53.26337 -6.45510 7002 ft 233 kts 219°
2026-05-06 16:28 53.25059 -6.47193 6999 ft 233 kts 219°
2026-05-06 16:29 53.23901 -6.49058 6902 ft 230 kts 237°
2026-05-06 16:29 53.23328 -6.51515 6783 ft 230 kts 263°
2026-05-06 16:29 53.23499 -6.54152 6660 ft 232 kts 289°
2026-05-06 16:29 53.24399 -6.56379 6512 ft 235 kts 317°
2026-05-06 16:30 53.25753 -6.57928 6397 ft 237 kts 325°
2026-05-06 16:30 53.26209 -6.58415 6355 ft 237 kts 324°
2026-05-06 16:30 53.28540 -6.60910 6130 ft 255 kts 325°
2026-05-06 16:30 53.30073 -6.62566 6008 ft 266 kts 324°
2026-05-06 16:31 53.31659 -6.64280 5866 ft 266 kts 325°
2026-05-06 16:31 53.33211 -6.65959 5733 ft 265 kts 325°
2026-05-06 16:31 53.34713 -6.67583 5600 ft 258 kts 325°
2026-05-06 16:31 53.36288 -6.68928 5462 ft 251 kts 340°
2026-05-06 16:32 53.37994 -6.69339 5336 ft 245 kts
2026-05-06 16:32 53.39664 -6.69087 5210 ft 240 kts
2026-05-06 16:32 53.41299 -6.68824 5128 ft 230 kts
2026-05-06 16:32 53.42339 -6.68661 5090 ft 222 kts
2026-05-06 16:33 53.44383 -6.68167 4506 ft 232 kts 22°
2026-05-06 16:33 53.45253 -6.67117 4241 ft 235 kts 51°
2026-05-06 16:33 53.45795 -6.64622 4026 ft 228 kts 93°
2026-05-06 16:34 53.45396 -6.59586 3810 ft 206 kts 96°
2026-05-06 16:34 53.45273 -6.57320 3663 ft 188 kts 96°
2026-05-06 16:34 53.45163 -6.55222 3457 ft 175 kts 97°
2026-05-06 16:34 53.45064 -6.53307 3258 ft 156 kts 97°
2026-05-06 16:35 53.44971 -6.51543 3050 ft 149 kts 97°
2026-05-06 16:35 53.44881 -6.49836 2842 ft 145 kts 96°
2026-05-06 16:35 53.44764 -6.47609 2581 ft 142 kts 97°
2026-05-06 16:35 53.44705 -6.46511 2460 ft 142 kts 97°
2026-05-06 16:36 53.44618 -6.44869 2260 ft 140 kts 97°
2026-05-06 16:36 53.44533 -6.43252 2068 ft 139 kts 98°
2026-05-06 16:36 53.44447 -6.41646 1878 ft 136 kts 98°
2026-05-06 16:36 53.44362 -6.40063 1700 ft 137 kts 96°
2026-05-06 16:37 53.44277 -6.38473 1505 ft 136 kts 97°
2026-05-06 16:37 53.44192 -6.36881 1315 ft 137 kts 97°
2026-05-06 16:37 53.44107 -6.35296 1123 ft 135 kts 97°
2026-05-06 16:37 53.44022 -6.33724 951 ft 134 kts 97°
2026-05-06 16:38 53.43939 -6.32191 765 ft 130 kts 97°
2026-05-06 16:38 53.43856 -6.30665 585 ft 131 kts 96°
2026-05-06 16:38 53.43773 -6.29141 417 ft 132 kts 97°
2026-05-06 16:38 53.43690 -6.27608 247 ft 133 kts 97°
2026-05-06 16:39 53.43611 -6.26173 212 ft 107 kts 95°
2026-05-06 16:39 53.43559 -6.25230 215 ft 58 kts 95°
2026-05-06 16:39 53.43537 -6.24803 213 ft 26 kts 96°
2026-05-06 16:39 53.43515 -6.24579 221 ft 14 kts 120°
2026-05-06 16:40 53.43413 -6.24563 212 ft 18 kts 187°
2026-05-06 16:40 53.43343 -6.24444 220 ft 17 kts 112°
2026-05-06 16:40 53.43226 -6.24416 211 ft 19 kts 189°
2026-05-06 16:40 53.43195 -6.24601 211 ft 19 kts 275°
2026-05-06 16:41 53.43185 -6.24780 211 ft 13 kts 275°
2026-05-06 16:41 53.43191 -6.24926 211 ft 7 kts 254°
2026-05-06 16:41 53.43127 -6.24957 211 ft 6 kts 186°
2026-05-06 16:41 53.43105 -6.24960 218 ft 2 kts 185°